Showing default

IRIDIUM 103, 41918

Orbit data source: Space-Track

IRIDIUM 103, 41918 is a payload satellite owned by Iridium (US) in LEO that was launched on Sat, 14 Jan 2017 UTC via an FALCON 9 launch vehicle from the Air Force Western Test Range (AFWTR). Payload-class satellites include a variety of spacecraft equipped with specific instruments for various scientific and technological missions. These include communications satellites like Starlink; space stations such as the ISS; scientific satellites like the Hubble; Earth observation satellites from companies like Planet Labs, Umbra, and HawkEye 360; GPS; miniature CubeSats for education and research; and military/defense satellites.

Loading next visibility...
Identifier
41918, 2017-003B
Orbit
LEO
Country
Flag of USUS
Related business
Manufacturer
OATK SSG Gilbert
Mission
Operational Commercial Communications
Bus & Motor
ELITEBUS, Unknown motor
Mass
860 kg wet, 700 kg dry
Launch date (UTC)
2017-01-14 (9 years ago)
Launch vehicle
FALCON 9
Launch site
Air Force Western Test Range (AFWTR)
Object type
Payload
Rocket body
Debris
Shape & HBR
Trap Box + 2 Pan, 4.8 m
Radar Cross Section
10.154 m², Large (>1 m²)

Expand to show TLE details & history
Last TLE update: 8 hours ago

TLE from 8 hours ago
0 IRIDIUM 103
1 41918U 17003B   26035.38309142  .00000371  00000-0  12548-3 0  9994
2 41918  86.4019 143.9655 0002495  94.6603 265.4878 14.34216563474194
Epoch: 2026-02-04T09:11Z
TLE epoch observation values (Epoch: 2026-02-04T09:11:39.098Z)
Latitude
-0.00002°
Longitude
-128.49787°
Altitude
780.863 km
Speed
7.463 km/s
True Right ascension
09h 35m 51s
True Declination
0° 00' 00"
Sunlit
Object was in full shadow at epoch
Visualization orbit readout
Latitude
Unknown
Longitude
Unknown
Altitude
Unknown
Speed
Unknown
Apparent Right ascension
Unknown
Apparent Declination
Unknown
Sunlit
N/A
Visualization observer readout
Local Sidereal Time
19:04:43
Azimuth
Unknown
Elevation
Unknown
Doppler factor
Unknown
Orbital elements
Apogee altitude
776.42 km
Perigee altitude
772.851 km
Semi-major axis
7,152.772 km
Eccentricity
0.00025
Inclination
86.4019°
RAAN
143.9655°
Arg. of periapsis
94.6603°
True anomaly
265.4593°
Mean anomaly
265.4878°
Eccentric anomaly
265.47355°
Mean motion
3.58783 °/min
Orbital period
100.34 mins
BSTAR
0.00012548
Loading maneuver chart data...
Computing Atmospheric mass density...
Loading historical data...
Loading historical data...
Loading historical data...
Loading historical data...
Loading historical data...
Loading historical data...
Loading historical data...

Documentation

Showing up to 5 results
|